contact:dominique.lefevre@mio.osupytheas.fr, maurice.libes@osupytheas.fr, didier.mallarino@osupytheas.fr
Project:EMSO http://www.emso-fr.org/EMSO-France
Depth: 2436.0 m
Title:EMSO Ligure Ouest : Data MII capteur MICROCAT
DateTime_Computer,Latitude,Longitude,Temperature,Conductivity,Pressure,DateTime_Instrument
DateTime_Computer,Latitude,Longitude,degC,S m-1,dbar,DateTime_Instrument
2020-09-17T00:02:59Z,42.805,6.029,13.2979,4.59978,2470.03,2020-9-17T02:03:50Z
2020-09-17T00:06:03Z,42.805,6.029,13.2975,4.59976,2469.993,2020-9-17T02:06:55Z
2020-09-17T00:09:05Z,42.805,6.029,13.2975,4.59976,2470.007,2020-9-17T02:09:56Z
2020-09-17T00:12:09Z,42.805,6.029,13.2974,4.59976,2470.017,2020-9-17T02:13:01Z
2020-09-17T00:15:12Z,42.805,6.029,13.2976,4.59976,2469.993,2020-9-17T02:16:03Z
2020-09-17T00:18:16Z,42.805,6.029,13.2978,4.59975,2470.017,2020-9-17T02:19:08Z
2020-09-17T00:21:21Z,42.805,6.029,13.2974,4.59976,2470.053,2020-9-17T02:22:12Z
2020-09-17T00:24:25Z,42.805,6.029,13.2977,4.59978,2469.993,2020-9-17T02:25:16Z
2020-09-17T00:27:28Z,42.805,6.029,13.2975,4.59976,2469.993,2020-9-17T02:28:20Z
2020-09-17T00:30:31Z,42.805,6.029,13.2977,4.59977,2469.993,2020-9-17T02:31:23Z
2020-09-17T00:33:33Z,42.805,6.029,13.2976,4.59976,2470.007,2020-9-17T02:34:25Z
2020-09-17T00:36:38Z,42.805,6.029,13.2974,4.59976,2470.007,2020-9-17T02:37:29Z
2020-09-17T00:39:39Z,42.805,6.029,13.2978,4.59977,2469.993,2020-9-17T02:40:31Z
2020-09-17T00:42:43Z,42.805,6.029,13.2971,4.59977,2469.97,2020-9-17T02:43:35Z
2020-09-17T00:45:46Z,42.805,6.029,13.2977,4.59978,2469.993,2020-9-17T02:46:38Z
2020-09-17T00:48:48Z,42.805,6.029,13.2976,4.59977,2469.993,2020-9-17T02:49:39Z
2020-09-17T00:51:52Z,42.805,6.029,13.2978,4.59977,2470.017,2020-9-17T02:52:43Z
2020-09-17T00:54:55Z,42.805,6.029,13.2977,4.59976,2469.984,2020-9-17T02:55:47Z
2020-09-17T00:57:56Z,42.805,6.029,13.2980,4.59976,2469.979,2020-9-17T02:58:48Z
2020-09-17T01:00:57Z,42.805,6.029,13.2975,4.59977,2469.97,2020-9-17T03:01:49Z
2020-09-17T01:03:59Z,42.805,6.029,13.2977,4.59978,2470.017,2020-9-17T03:04:51Z
2020-09-17T01:07:02Z,42.805,6.029,13.2975,4.59976,2469.993,2020-9-17T03:07:54Z
2020-09-17T01:10:05Z,42.805,6.029,13.2976,4.59978,2469.984,2020-9-17T03:10:56Z
2020-09-17T01:13:09Z,42.805,6.029,13.2974,4.59978,2469.993,2020-9-17T03:14:01Z
2020-09-17T01:16:13Z,42.805,6.029,13.2975,4.59976,2469.97,2020-9-17T03:17:05Z
2020-09-17T01:19:17Z,42.805,6.029,13.2976,4.59976,2469.947,2020-9-17T03:20:09Z
2020-09-17T01:22:22Z,42.805,6.029,13.2979,4.59978,2469.947,2020-9-17T03:23:14Z
2020-09-17T01:25:25Z,42.805,6.029,13.2977,4.59977,2469.97,2020-9-17T03:26:17Z
2020-09-17T01:28:29Z,42.805,6.029,13.2973,4.59976,2470.007,2020-9-17T03:29:21Z
2020-09-17T01:31:34Z,42.805,6.029,13.2977,4.59976,2470.007,2020-9-17T03:32:26Z
2020-09-17T01:34:35Z,42.805,6.029,13.2977,4.59976,2469.984,2020-9-17T03:35:27Z
2020-09-17T01:37:37Z,42.805,6.029,13.2975,4.59976,2469.993,2020-9-17T03:38:29Z
2020-09-17T01:40:39Z,42.805,6.029,13.2974,4.59978,2469.984,2020-9-17T03:41:31Z
2020-09-17T01:43:42Z,42.805,6.029,13.2973,4.59977,2469.993,2020-9-17T03:44:34Z
2020-09-17T01:46:46Z,42.805,6.029,13.2976,4.59978,2469.97,2020-9-17T03:47:37Z
2020-09-17T01:49:48Z,42.805,6.029,13.2976,4.59978,2469.97,2020-9-17T03:50:39Z
2020-09-17T01:52:52Z,42.805,6.029,13.2975,4.59976,2469.984,2020-9-17T03:53:44Z
2020-09-17T01:55:56Z,42.805,6.029,13.2976,4.59978,2469.979,2020-9-17T03:56:48Z
2020-09-17T01:58:59Z,42.805,6.029,13.2974,4.59976,2470.007,2020-9-17T03:59:51Z
2020-09-17T02:02:02Z,42.805,6.029,13.2973,4.59978,2470.007,2020-9-17T04:02:54Z
2020-09-17T02:05:06Z,42.805,6.029,13.2975,4.59978,2469.993,2020-9-17T04:05:57Z
2020-09-17T02:08:09Z,42.805,6.029,13.2978,4.59977,2469.97,2020-9-17T04:09:01Z
2020-09-17T02:11:12Z,42.805,6.029,13.2976,4.59978,2469.97,2020-9-17T04:12:04Z
2020-09-17T02:14:15Z,42.805,6.029,13.2974,4.59978,2469.993,2020-9-17T04:15:07Z
2020-09-17T02:17:19Z,42.805,6.029,13.2976,4.59976,2469.97,2020-9-17T04:18:11Z
2020-09-17T02:20:22Z,42.805,6.029,13.2975,4.59976,2469.993,2020-9-17T04:21:14Z
2020-09-17T02:23:23Z,42.805,6.029,13.2976,4.59976,2469.97,2020-9-17T04:24:15Z
2020-09-17T02:26:27Z,42.805,6.029,13.2978,4.59977,2469.993,2020-9-17T04:27:19Z
2020-09-17T02:29:31Z,42.805,6.029,13.2977,4.59976,2469.993,2020-9-17T04:30:23Z
2020-09-17T02:32:34Z,42.805,6.029,13.2976,4.59978,2469.984,2020-9-17T04:33:26Z
2020-09-17T02:35:36Z,42.805,6.029,13.2976,4.59976,2469.993,2020-9-17T04:36:28Z
2020-09-17T02:38:38Z,42.805,6.029,13.2976,4.59977,2469.956,2020-9-17T04:39:30Z
2020-09-17T02:41:42Z,42.805,6.029,13.2975,4.59976,2469.984,2020-9-17T04:42:34Z
2020-09-17T02:44:44Z,42.805,6.029,13.2979,4.59976,2469.97,2020-9-17T04:45:36Z
2020-09-17T02:47:48Z,42.805,6.029,13.2979,4.59976,2469.984,2020-9-17T04:48:39Z
2020-09-17T02:50:51Z,42.805,6.029,13.2974,4.59978,2469.984,2020-9-17T04:51:42Z
2020-09-17T02:53:55Z,42.805,6.029,13.2971,4.59977,2469.993,2020-9-17T04:54:47Z
2020-09-17T02:56:58Z,42.805,6.029,13.2974,4.59979,2470.03,2020-9-17T04:57:50Z
2020-09-17T02:59:59Z,42.805,6.029,13.2976,4.59976,2469.956,2020-9-17T05:00:51Z
2020-09-17T03:03:01Z,42.805,6.029,13.2976,4.59978,2470.003,2020-9-17T05:03:52Z
2020-09-17T03:06:02Z,42.805,6.029,13.2980,4.59976,2470.017,2020-9-17T05:06:54Z
2020-09-17T03:09:03Z,42.805,6.029,13.2977,4.59977,2470.03,2020-9-17T05:09:55Z
2020-09-17T03:12:08Z,42.805,6.029,13.2975,4.59976,2470.017,2020-9-17T05:13:00Z
2020-09-17T03:15:10Z,42.805,6.029,13.2977,4.59976,2470.017,2020-9-17T05:16:02Z
2020-09-17T03:18:14Z,42.805,6.029,13.2975,4.59977,2469.979,2020-9-17T05:19:06Z
2020-09-17T03:21:18Z,42.805,6.029,13.2979,4.59978,2469.993,2020-9-17T05:22:09Z
2020-09-17T03:24:21Z,42.805,6.029,13.2976,4.59976,2470.017,2020-9-17T05:25:13Z
2020-09-17T03:27:24Z,42.805,6.029,13.2976,4.59977,2470.017,2020-9-17T05:28:16Z
2020-09-17T03:30:28Z,42.805,6.029,13.2978,4.59977,2470.03,2020-9-17T05:31:20Z
2020-09-17T03:33:31Z,42.805,6.029,13.2978,4.59977,2470.017,2020-9-17T05:34:23Z
2020-09-17T03:36:34Z,42.805,6.029,13.2974,4.59976,2470.017,2020-9-17T05:37:26Z
2020-09-17T03:39:38Z,42.805,6.029,13.2976,4.59978,2470.063,2020-9-17T05:40:29Z
2020-09-17T03:42:39Z,42.805,6.029,13.2976,4.59977,2470.053,2020-9-17T05:43:30Z
2020-09-17T03:45:41Z,42.805,6.029,13.2976,4.59977,2470.03,2020-9-17T05:46:33Z
2020-09-17T03:48:46Z,42.805,6.029,13.2981,4.59978,2470.077,2020-9-17T05:49:38Z
2020-09-17T03:51:49Z,42.805,6.029,13.2979,4.59978,2470.04,2020-9-17T05:52:41Z
2020-09-17T03:54:51Z,42.805,6.029,13.2978,4.59978,2470.017,2020-9-17T05:55:43Z
2020-09-17T03:57:53Z,42.805,6.029,13.2976,4.59978,2470.04,2020-9-17T05:58:45Z
2020-09-17T04:00:57Z,42.805,6.029,13.2976,4.59977,2470.04,2020-9-17T06:01:49Z
2020-09-17T04:04:00Z,42.805,6.029,13.2978,4.59979,2470.063,2020-9-17T06:04:52Z
2020-09-17T04:07:03Z,42.805,6.029,13.2976,4.59978,2470.077,2020-9-17T06:07:55Z
2020-09-17T04:10:06Z,42.805,6.029,13.2977,4.59978,2470.04,2020-9-17T06:10:58Z
2020-09-17T04:13:10Z,42.805,6.029,13.2977,4.59978,2470.063,2020-9-17T06:14:01Z
2020-09-17T04:16:12Z,42.805,6.029,13.2974,4.59978,2470.11,2020-9-17T06:17:03Z
2020-09-17T04:19:15Z,42.805,6.029,13.2979,4.59977,2470.04,2020-9-17T06:20:07Z
2020-09-17T04:22:17Z,42.805,6.029,13.2978,4.59978,2470.04,2020-9-17T06:23:09Z
2020-09-17T04:25:19Z,42.805,6.029,13.2976,4.59978,2470.11,2020-9-17T06:26:10Z
2020-09-17T04:28:22Z,42.805,6.029,13.2976,4.59978,2470.087,2020-9-17T06:29:14Z
2020-09-17T04:31:25Z,42.805,6.029,13.2978,4.59978,2470.11,2020-9-17T06:32:17Z
2020-09-17T04:34:27Z,42.805,6.029,13.2980,4.59978,2470.11,2020-9-17T06:35:19Z
2020-09-17T04:37:28Z,42.805,6.029,13.2980,4.59978,2470.087,2020-9-17T06:38:20Z
2020-09-17T04:40:33Z,42.805,6.029,13.2978,4.59978,2470.124,2020-9-17T06:41:25Z
2020-09-17T04:43:36Z,42.805,6.029,13.2979,4.59978,2470.1,2020-9-17T06:44:28Z
2020-09-17T04:46:38Z,42.805,6.029,13.2977,4.59978,2470.11,2020-9-17T06:47:30Z
2020-09-17T04:49:43Z,42.805,6.029,13.2976,4.59979,2470.077,2020-9-17T06:50:34Z
2020-09-17T04:52:47Z,42.805,6.029,13.2980,4.59978,2470.133,2020-9-17T06:53:39Z
2020-09-17T04:55:49Z,42.805,6.029,13.2976,4.59978,2470.133,2020-9-17T06:56:41Z
2020-09-17T04:58:52Z,42.805,6.029,13.2975,4.59978,2470.156,2020-9-17T06:59:44Z
2020-09-17T05:01:56Z,42.805,6.029,13.2977,4.59978,2470.11,2020-9-17T07:02:48Z
2020-09-17T05:05:00Z,42.805,6.029,13.2978,4.59978,2470.133,2020-9-17T07:05:52Z
2020-09-17T05:08:03Z,42.805,6.029,13.2980,4.59978,2470.156,2020-9-17T07:08:55Z
2020-09-17T05:11:07Z,42.805,6.029,13.2979,4.59978,2470.11,2020-9-17T07:11:59Z
2020-09-17T05:14:10Z,42.805,6.029,13.2974,4.59978,2470.156,2020-9-17T07:15:02Z
2020-09-17T05:17:14Z,42.805,6.029,13.2976,4.59978,2470.124,2020-9-17T07:18:06Z
2020-09-17T05:20:17Z,42.805,6.029,13.2981,4.59978,2470.156,2020-9-17T07:21:09Z
2020-09-17T05:23:20Z,42.805,6.029,13.2979,4.59978,2470.171,2020-9-17T07:24:12Z
2020-09-17T05:26:24Z,42.805,6.029,13.2978,4.59978,2470.124,2020-9-17T07:27:16Z
2020-09-17T05:29:26Z,42.805,6.029,13.2980,4.59978,2470.156,2020-9-17T07:30:18Z
2020-09-17T05:32:30Z,42.805,6.029,13.2977,4.59978,2470.194,2020-9-17T07:33:21Z
2020-09-17T05:35:34Z,42.805,6.029,13.2978,4.59978,2470.156,2020-9-17T07:36:26Z
2020-09-17T05:38:36Z,42.805,6.029,13.2979,4.59978,2470.156,2020-9-17T07:39:28Z
2020-09-17T05:41:40Z,42.805,6.029,13.2979,4.59978,2470.133,2020-9-17T07:42:31Z
2020-09-17T05:44:45Z,42.805,6.029,13.2979,4.59978,2470.133,2020-9-17T07:45:36Z
2020-09-17T05:47:48Z,42.805,6.029,13.2978,4.59979,2470.171,2020-9-17T07:48:40Z
2020-09-17T05:50:52Z,42.805,6.029,13.2979,4.59979,2470.18,2020-9-17T07:51:43Z
2020-09-17T05:53:53Z,42.805,6.029,13.2974,4.59978,2470.156,2020-9-17T07:54:45Z
2020-09-17T05:56:57Z,42.805,6.029,13.2979,4.59979,2470.171,2020-9-17T07:57:49Z
2020-09-17T06:00:02Z,42.805,6.029,13.2976,4.59978,2470.194,2020-9-17T08:00:53Z
2020-09-17T06:03:03Z,42.805,6.029,13.2976,4.59979,2470.156,2020-9-17T08:03:55Z
2020-09-17T06:06:06Z,42.805,6.029,13.2976,4.59980,2470.171,2020-9-17T08:06:58Z
2020-09-17T06:09:10Z,42.805,6.029,13.2979,4.59978,2470.156,2020-9-17T08:10:02Z
2020-09-17T06:12:13Z,42.805,6.029,13.2977,4.59978,2470.171,2020-9-17T08:13:05Z
2020-09-17T06:15:16Z,42.805,6.029,13.2979,4.59978,2470.18,2020-9-17T08:16:08Z
2020-09-17T06:18:20Z,42.805,6.029,13.2979,4.59978,2470.18,2020-9-17T08:19:11Z
2020-09-17T06:21:23Z,42.805,6.029,13.2976,4.59978,2470.203,2020-9-17T08:22:15Z
2020-09-17T06:24:27Z,42.805,6.029,13.2975,4.59978,2470.156,2020-9-17T08:25:19Z
2020-09-17T06:27:28Z,42.805,6.029,13.2978,4.59979,2470.18,2020-9-17T08:28:20Z
2020-09-17T06:30:30Z,42.805,6.029,13.2978,4.59978,2470.156,2020-9-17T08:31:22Z
2020-09-17T06:33:34Z,42.805,6.029,13.2981,4.59979,2470.203,2020-9-17T08:34:25Z
2020-09-17T06:36:36Z,42.805,6.029,13.2981,4.59978,2470.203,2020-9-17T08:37:28Z
2020-09-17T06:39:38Z,42.805,6.029,13.2980,4.59979,2470.156,2020-9-17T08:40:30Z
2020-09-17T06:42:40Z,42.805,6.029,13.2980,4.59978,2470.194,2020-9-17T08:43:31Z
2020-09-17T06:45:41Z,42.805,6.029,13.2977,4.59978,2470.18,2020-9-17T08:46:33Z
2020-09-17T06:48:46Z,42.805,6.029,13.2980,4.59978,2470.166,2020-9-17T08:49:38Z
2020-09-17T06:51:49Z,42.805,6.029,13.2977,4.59978,2470.156,2020-9-17T08:52:41Z
2020-09-17T06:54:51Z,42.805,6.029,13.2975,4.59979,2470.24,2020-9-17T08:55:43Z
2020-09-17T06:57:54Z,42.805,6.029,13.2974,4.59980,2470.156,2020-9-17T08:58:46Z
2020-09-17T07:00:56Z,42.805,6.029,13.2982,4.59979,2470.18,2020-9-17T09:01:48Z
2020-09-17T07:04:00Z,42.805,6.029,13.2977,4.59979,2470.18,2020-9-17T09:04:52Z
2020-09-17T07:07:03Z,42.805,6.029,13.2976,4.59979,2470.227,2020-9-17T09:07:55Z
2020-09-17T07:10:06Z,42.805,6.029,13.2978,4.59980,2470.133,2020-9-17T09:10:58Z
2020-09-17T07:13:11Z,42.805,6.029,13.2977,4.59979,2470.18,2020-9-17T09:14:03Z
2020-09-17T07:16:13Z,42.805,6.029,13.2976,4.59979,2470.194,2020-9-17T09:17:05Z
2020-09-17T07:19:16Z,42.805,6.029,13.2977,4.59979,2470.156,2020-9-17T09:20:08Z
2020-09-17T07:22:18Z,42.805,6.029,13.2977,4.59979,2470.217,2020-9-17T09:23:10Z
2020-09-17T07:25:22Z,42.805,6.029,13.2980,4.59978,2470.171,2020-9-17T09:26:13Z
2020-09-17T07:28:24Z,42.805,6.029,13.2974,4.59979,2470.171,2020-9-17T09:29:16Z
2020-09-17T07:31:27Z,42.805,6.029,13.2978,4.59978,2470.156,2020-9-17T09:32:19Z
2020-09-17T07:34:32Z,42.805,6.029,13.2979,4.59979,2470.194,2020-9-17T09:35:24Z
2020-09-17T07:37:34Z,42.805,6.029,13.2975,4.59978,2470.156,2020-9-17T09:38:25Z
2020-09-17T07:40:37Z,42.805,6.029,13.2976,4.59979,2470.194,2020-9-17T09:41:29Z
2020-09-17T07:43:40Z,42.805,6.029,13.2977,4.59978,2470.194,2020-9-17T09:44:32Z
2020-09-17T07:46:42Z,42.805,6.029,13.2976,4.59978,2470.203,2020-9-17T09:47:34Z
2020-09-17T07:49:44Z,42.805,6.029,13.2976,4.59978,2470.156,2020-9-17T09:50:36Z
2020-09-17T07:52:49Z,42.805,6.029,13.2979,4.59978,2470.18,2020-9-17T09:53:41Z
2020-09-17T07:55:51Z,42.805,6.029,13.2979,4.59978,2470.194,2020-9-17T09:56:43Z
2020-09-17T07:58:54Z,42.805,6.029,13.2975,4.59980,2470.156,2020-9-17T09:59:46Z
2020-09-17T08:01:57Z,42.805,6.029,13.2978,4.59979,2470.171,2020-9-17T10:02:49Z
2020-09-17T08:05:00Z,42.805,6.029,13.2980,4.59978,2470.194,2020-9-17T10:05:52Z
2020-09-17T08:08:04Z,42.805,6.029,13.2980,4.59979,2470.18,2020-9-17T10:08:55Z
2020-09-17T08:11:07Z,42.805,6.029,13.2976,4.59980,2470.147,2020-9-17T10:11:59Z
2020-09-17T08:14:08Z,42.805,6.029,13.2977,4.59978,2470.156,2020-9-17T10:15:00Z
2020-09-17T08:17:11Z,42.805,6.029,13.2979,4.59978,2470.171,2020-9-17T10:18:03Z
2020-09-17T08:20:13Z,42.805,6.029,13.2976,4.59978,2470.156,2020-9-17T10:21:04Z
2020-09-17T08:23:14Z,42.805,6.029,13.2981,4.59978,2470.171,2020-9-17T10:24:06Z
2020-09-17T08:26:16Z,42.805,6.029,13.2979,4.59978,2470.133,2020-9-17T10:27:08Z
2020-09-17T08:29:20Z,42.805,6.029,13.2976,4.59978,2470.156,2020-9-17T10:30:11Z
2020-09-17T08:32:23Z,42.805,6.029,13.2978,4.59979,2470.171,2020-9-17T10:33:15Z
2020-09-17T08:35:27Z,42.805,6.029,13.2976,4.59978,2470.171,2020-9-17T10:36:19Z
2020-09-17T08:38:29Z,42.805,6.029,13.2976,4.59979,2470.133,2020-9-17T10:39:21Z
2020-09-17T08:41:32Z,42.805,6.029,13.2978,4.59978,2470.171,2020-9-17T10:42:24Z
2020-09-17T08:44:35Z,42.805,6.029,13.2977,4.59978,2470.166,2020-9-17T10:45:27Z
2020-09-17T08:47:39Z,42.805,6.029,13.2977,4.59978,2470.156,2020-9-17T10:48:31Z
2020-09-17T08:50:42Z,42.805,6.029,13.2976,4.59979,2470.133,2020-9-17T10:51:34Z
2020-09-17T08:53:45Z,42.805,6.029,13.2977,4.59978,2470.156,2020-9-17T10:54:37Z
2020-09-17T08:56:49Z,42.805,6.029,13.2976,4.59979,2470.1,2020-9-17T10:57:40Z
2020-09-17T08:59:52Z,42.805,6.029,13.2978,4.59979,2470.133,2020-9-17T11:00:44Z
2020-09-17T09:02:55Z,42.805,6.029,13.2976,4.59978,2470.156,2020-9-17T11:03:46Z
2020-09-17T09:05:59Z,42.805,6.029,13.2979,4.59979,2470.156,2020-9-17T11:06:51Z
2020-09-17T09:09:00Z,42.805,6.029,13.2976,4.59979,2470.11,2020-9-17T11:09:52Z
2020-09-17T09:12:04Z,42.805,6.029,13.2980,4.59978,2470.133,2020-9-17T11:12:56Z
2020-09-17T09:15:08Z,42.805,6.029,13.2982,4.59978,2470.133,2020-9-17T11:16:00Z
2020-09-17T09:18:11Z,42.805,6.029,13.2976,4.59979,2470.11,2020-9-17T11:19:03Z
2020-09-17T09:21:15Z,42.805,6.029,13.2978,4.59978,2470.133,2020-9-17T11:22:07Z
2020-09-17T09:24:20Z,42.805,6.029,13.2979,4.59980,2470.133,2020-9-17T11:25:11Z
2020-09-17T09:27:20Z,42.805,6.029,13.2974,4.59978,2470.124,2020-9-17T11:28:12Z
2020-09-17T09:30:23Z,42.805,6.029,13.2976,4.59979,2470.124,2020-9-17T11:31:15Z
2020-09-17T09:33:28Z,42.805,6.029,13.2979,4.59979,2470.096,2020-9-17T11:34:20Z
2020-09-17T09:36:29Z,42.805,6.029,13.2979,4.59978,2470.087,2020-9-17T11:37:21Z
2020-09-17T09:39:33Z,42.805,6.029,13.2980,4.59978,2470.087,2020-9-17T11:40:25Z
2020-09-17T09:42:36Z,42.805,6.029,13.2979,4.59979,2470.124,2020-9-17T11:43:28Z
2020-09-17T09:45:40Z,42.805,6.029,13.2979,4.59979,2470.087,2020-9-17T11:46:31Z
2020-09-17T09:48:43Z,42.805,6.029,13.2981,4.59979,2470.077,2020-9-17T11:49:35Z
2020-09-17T09:51:45Z,42.805,6.029,13.2980,4.59979,2470.11,2020-9-17T11:52:37Z
2020-09-17T09:54:48Z,42.805,6.029,13.2979,4.59979,2470.087,2020-9-17T11:55:40Z
2020-09-17T09:57:52Z,42.805,6.029,13.2979,4.59978,2470.063,2020-9-17T11:58:44Z
2020-09-17T10:00:56Z,42.805,6.029,13.2980,4.59978,2470.077,2020-9-17T12:01:48Z
2020-09-17T10:03:59Z,42.805,6.029,13.2976,4.59978,2470.087,2020-9-17T12:04:51Z
2020-09-17T10:07:02Z,42.805,6.029,13.2979,4.59978,2470.087,2020-9-17T12:07:53Z
2020-09-17T10:10:03Z,42.805,6.029,13.2979,4.59978,2470.124,2020-9-17T12:10:55Z
2020-09-17T10:13:05Z,42.805,6.029,13.2979,4.59978,2470.087,2020-9-17T12:13:57Z
2020-09-17T10:16:08Z,42.805,6.029,13.2982,4.59978,2470.077,2020-9-17T12:17:00Z
2020-09-17T10:19:10Z,42.805,6.029,13.2979,4.59979,2470.063,2020-9-17T12:20:02Z
2020-09-17T10:22:13Z,42.805,6.029,13.2978,4.59978,2470.063,2020-9-17T12:23:05Z
2020-09-17T10:25:17Z,42.805,6.029,13.2981,4.59978,2470.063,2020-9-17T12:26:09Z
2020-09-17T10:28:20Z,42.805,6.029,13.2976,4.59978,2470.077,2020-9-17T12:29:12Z
2020-09-17T10:31:22Z,42.805,6.029,13.2979,4.59978,2470.04,2020-9-17T12:32:14Z
2020-09-17T10:34:24Z,42.805,6.029,13.2979,4.59979,2470.1,2020-9-17T12:35:15Z
2020-09-17T10:37:25Z,42.805,6.029,13.2978,4.59978,2470.063,2020-9-17T12:38:17Z
2020-09-17T10:40:28Z,42.805,6.029,13.2976,4.59979,2470.04,2020-9-17T12:41:20Z
2020-09-17T10:43:31Z,42.805,6.029,13.2974,4.59978,2470.04,2020-9-17T12:44:23Z
2020-09-17T10:46:35Z,42.805,6.029,13.2980,4.59978,2470.077,2020-9-17T12:47:27Z
2020-09-17T10:49:40Z,42.805,6.029,13.2980,4.59978,2470.04,2020-9-17T12:50:32Z
2020-09-17T10:52:43Z,42.805,6.029,13.2977,4.59980,2470.053,2020-9-17T12:53:35Z
2020-09-17T10:55:47Z,42.805,6.029,13.2979,4.59978,2470.077,2020-9-17T12:56:39Z
2020-09-17T10:58:48Z,42.805,6.029,13.2979,4.59978,2470.04,2020-9-17T12:59:40Z
2020-09-17T11:01:51Z,42.805,6.029,13.2980,4.59979,2470.04,2020-9-17T13:02:43Z
2020-09-17T11:04:55Z,42.805,6.029,13.2979,4.59978,2470.017,2020-9-17T13:05:47Z
2020-09-17T11:07:59Z,42.805,6.029,13.2976,4.59978,2470.04,2020-9-17T13:08:50Z
2020-09-17T11:11:03Z,42.805,6.029,13.2981,4.59979,2470.077,2020-9-17T13:11:54Z
2020-09-17T11:14:06Z,42.805,6.029,13.2980,4.59980,2470.04,2020-9-17T13:14:58Z
2020-09-17T11:17:09Z,42.805,6.029,13.2978,4.59978,2470.03,2020-9-17T13:18:00Z
2020-09-17T11:20:12Z,42.805,6.029,13.2977,4.59978,2470.04,2020-9-17T13:21:04Z
2020-09-17T11:23:15Z,42.805,6.029,13.2978,4.59978,2470.077,2020-9-17T13:24:07Z
2020-09-17T11:26:19Z,42.805,6.029,13.2977,4.59979,2470.007,2020-9-17T13:27:11Z
2020-09-17T11:29:21Z,42.805,6.029,13.2982,4.59978,2469.993,2020-9-17T13:30:13Z
2020-09-17T11:32:24Z,42.805,6.029,13.2976,4.59978,2470.04,2020-9-17T13:33:16Z
2020-09-17T11:35:28Z,42.805,6.029,13.2974,4.59979,2470.017,2020-9-17T13:36:19Z
2020-09-17T11:38:32Z,42.805,6.029,13.2978,4.59979,2469.993,2020-9-17T13:39:24Z
2020-09-17T11:41:33Z,42.805,6.029,13.2979,4.59978,2470.03,2020-9-17T13:42:25Z
2020-09-17T11:44:38Z,42.805,6.029,13.2979,4.59978,2470.017,2020-9-17T13:45:30Z
2020-09-17T11:47:42Z,42.805,6.029,13.2975,4.59979,2470.017,2020-9-17T13:48:34Z
2020-09-17T11:50:46Z,42.805,6.029,13.2977,4.59979,2469.993,2020-9-17T13:51:38Z
2020-09-17T11:53:49Z,42.805,6.029,13.2982,4.59978,2469.993,2020-9-17T13:54:41Z
2020-09-17T11:56:53Z,42.805,6.029,13.2979,4.59978,2469.97,2020-9-17T13:57:44Z
2020-09-17T11:59:57Z,42.805,6.029,13.2976,4.59979,2469.993,2020-9-17T14:00:49Z
2020-09-17T12:02:59Z,42.805,6.029,13.2977,4.59978,2469.993,2020-9-17T14:03:51Z
2020-09-17T12:06:01Z,42.805,6.029,13.2979,4.59978,2469.97,2020-9-17T14:06:52Z
2020-09-17T12:09:05Z,42.805,6.029,13.2974,4.59978,2469.97,2020-9-17T14:09:56Z
2020-09-17T12:12:06Z,42.805,6.029,13.2979,4.59978,2469.97,2020-9-17T14:12:58Z
2020-09-17T12:15:08Z,42.805,6.029,13.2978,4.59979,2469.97,2020-9-17T14:16:00Z
2020-09-17T12:18:12Z,42.805,6.029,13.2980,4.59978,2470.03,2020-9-17T14:19:04Z
2020-09-17T12:21:13Z,42.805,6.029,13.2978,4.59980,2469.97,2020-9-17T14:22:05Z
2020-09-17T12:24:16Z,42.805,6.029,13.2978,4.59978,2469.97,2020-9-17T14:25:08Z
2020-09-17T12:27:21Z,42.805,6.029,13.2982,4.59979,2469.947,2020-9-17T14:28:13Z
2020-09-17T12:30:23Z,42.805,6.029,13.2979,4.59979,2469.96,2020-9-17T14:31:15Z
2020-09-17T12:33:24Z,42.805,6.029,13.2978,4.59978,2469.984,2020-9-17T14:34:16Z
2020-09-17T12:36:28Z,42.805,6.029,13.2979,4.59979,2469.947,2020-9-17T14:37:20Z
2020-09-17T12:39:32Z,42.805,6.029,13.2982,4.59978,2469.97,2020-9-17T14:40:24Z
2020-09-17T12:42:36Z,42.805,6.029,13.2976,4.59979,2469.947,2020-9-17T14:43:28Z
2020-09-17T12:45:40Z,42.805,6.029,13.2976,4.59980,2469.984,2020-9-17T14:46:31Z
2020-09-17T12:48:44Z,42.805,6.029,13.2981,4.59980,2469.947,2020-9-17T14:49:35Z
2020-09-17T12:51:45Z,42.805,6.029,13.2981,4.59978,2469.97,2020-9-17T14:52:36Z
2020-09-17T12:54:46Z,42.805,6.029,13.2979,4.59980,2469.984,2020-9-17T14:55:38Z
2020-09-17T12:57:49Z,42.805,6.029,13.2978,4.59979,2469.993,2020-9-17T14:58:41Z
2020-09-17T13:00:53Z,42.805,6.029,13.2977,4.59979,2469.96,2020-9-17T15:01:45Z
2020-09-17T13:03:58Z,42.805,6.029,13.2982,4.59980,2469.97,2020-9-17T15:04:49Z
2020-09-17T13:07:02Z,42.805,6.029,13.2983,4.59978,2469.947,2020-9-17T15:07:54Z
2020-09-17T13:10:05Z,42.805,6.029,13.2976,4.59979,2469.947,2020-9-17T15:10:57Z
2020-09-17T13:13:09Z,42.805,6.029,13.2979,4.59978,2469.97,2020-9-17T15:14:01Z
2020-09-17T13:16:10Z,42.805,6.029,13.2980,4.59978,2469.937,2020-9-17T15:17:02Z
2020-09-17T13:19:12Z,42.805,6.029,13.2980,4.59978,2469.947,2020-9-17T15:20:04Z
2020-09-17T13:22:16Z,42.805,6.029,13.2976,4.59979,2469.96,2020-9-17T15:23:08Z
2020-09-17T13:25:19Z,42.805,6.029,13.2979,4.59979,2469.923,2020-9-17T15:26:11Z
2020-09-17T13:28:22Z,42.805,6.029,13.2979,4.59980,2469.97,2020-9-17T15:29:14Z
2020-09-17T13:31:26Z,42.805,6.029,13.2977,4.59979,2469.97,2020-9-17T15:32:18Z
2020-09-17T13:34:29Z,42.805,6.029,13.2981,4.59978,2469.97,2020-9-17T15:35:21Z
2020-09-17T13:37:34Z,42.805,6.029,13.2976,4.59978,2469.984,2020-9-17T15:38:25Z
2020-09-17T13:40:37Z,42.805,6.029,13.2977,4.59980,2469.947,2020-9-17T15:41:29Z
2020-09-17T13:43:42Z,42.805,6.029,13.2978,4.59980,2469.97,2020-9-17T15:44:34Z
2020-09-17T13:46:46Z,42.805,6.029,13.2979,4.59980,2469.96,2020-9-17T15:47:38Z
2020-09-17T13:49:50Z,42.805,6.029,13.2978,4.59979,2469.97,2020-9-17T15:50:42Z
2020-09-17T13:52:54Z,42.805,6.029,13.2977,4.59979,2469.947,2020-9-17T15:53:46Z
2020-09-17T13:55:57Z,42.805,6.029,13.2981,4.59978,2469.947,2020-9-17T15:56:49Z
2020-09-17T13:58:59Z,42.805,6.029,13.2981,4.59979,2469.947,2020-9-17T15:59:51Z
2020-09-17T14:02:03Z,42.805,6.029,13.2979,4.59980,2469.96,2020-9-17T16:02:55Z
2020-09-17T14:05:06Z,42.805,6.029,13.2978,4.59979,2469.923,2020-9-17T16:05:57Z
2020-09-17T14:08:07Z,42.805,6.029,13.2983,4.59978,2469.947,2020-9-17T16:08:58Z
2020-09-17T14:11:09Z,42.805,6.029,13.2980,4.59979,2469.96,2020-9-17T16:12:01Z
2020-09-17T14:14:11Z,42.805,6.029,13.2977,4.59980,2469.984,2020-9-17T16:15:03Z
2020-09-17T14:17:16Z,42.805,6.029,13.2979,4.59980,2469.984,2020-9-17T16:18:08Z
2020-09-17T14:20:19Z,42.805,6.029,13.2981,4.59979,2469.96,2020-9-17T16:21:11Z
2020-09-17T14:23:24Z,42.805,6.029,13.2977,4.59979,2469.993,2020-9-17T16:24:16Z
2020-09-17T14:26:29Z,42.805,6.029,13.2982,4.59979,2469.993,2020-9-17T16:27:21Z
2020-09-17T14:29:30Z,42.805,6.029,13.2979,4.59979,2469.97,2020-9-17T16:30:22Z
2020-09-17T14:32:32Z,42.805,6.029,13.2979,4.59980,2469.984,2020-9-17T16:33:24Z
2020-09-17T14:35:36Z,42.805,6.029,13.2980,4.59980,2469.984,2020-9-17T16:36:28Z
2020-09-17T14:38:39Z,42.805,6.029,13.2982,4.59980,2469.97,2020-9-17T16:39:30Z
2020-09-17T14:41:40Z,42.805,6.029,13.2978,4.59981,2469.993,2020-9-17T16:42:32Z
2020-09-17T14:44:43Z,42.805,6.029,13.2979,4.59980,2469.993,2020-9-17T16:45:35Z
2020-09-17T14:47:47Z,42.805,6.029,13.2980,4.59980,2469.97,2020-9-17T16:48:38Z
2020-09-17T14:50:50Z,42.805,6.029,13.2979,4.59979,2469.993,2020-9-17T16:51:42Z
2020-09-17T14:53:54Z,42.805,6.029,13.2983,4.59981,2469.97,2020-9-17T16:54:46Z
2020-09-17T14:56:59Z,42.805,6.029,13.2977,4.59981,2469.993,2020-9-17T16:57:51Z
2020-09-17T15:00:03Z,42.805,6.029,13.2982,4.59981,2470.017,2020-9-17T17:00:53Z
2020-09-17T15:03:04Z,42.805,6.029,13.2979,4.59981,2469.993,2020-9-17T17:03:56Z
2020-09-17T15:06:06Z,42.805,6.029,13.2982,4.59981,2470.017,2020-9-17T17:06:58Z
2020-09-17T15:09:10Z,42.805,6.029,13.2982,4.59981,2470.017,2020-9-17T17:10:02Z
2020-09-17T15:12:13Z,42.805,6.029,13.2981,4.59983,2469.993,2020-9-17T17:13:05Z
2020-09-17T15:15:17Z,42.805,6.029,13.2983,4.59983,2470.04,2020-9-17T17:16:09Z